ASH4031 KIAH-KTUS

Flight info

Callsign ASH4031
Flight time 2h 14m
Altitude 30000
Route PITZZ5 CRGER DCT EWM ZONNA2
Aircraft E175/M-SDE3GILORVW/S

Departure

Time 2026-04-22 17:00
Airport George Bush Intercontinental Airport (KIAH)

Arrival

Time 2026-04-22 19:15
Airport Tucson International Airport (KTUS)
Time Latitude Longitude Altitude Speed Heading
2026-04-22 16:20 29.98441 -95.34406 98 ft 0 kts
2026-04-22 16:49 29.98442 -95.34406 98 ft 0 kts
2026-04-22 16:49 29.98425 -95.34408 98 ft 2 kts
2026-04-22 16:50 29.98415 -95.34409 98 ft 2 kts 358°
2026-04-22 16:50 29.98397 -95.34403 98 ft 2 kts 329°
2026-04-22 16:50 29.98389 -95.34396 98 ft 2 kts 315°
2026-04-22 16:50 29.98379 -95.34377 98 ft 2 kts 287°
2026-04-22 16:51 29.98377 -95.34360 98 ft 2 kts 269°
2026-04-22 16:51 29.98377 -95.34348 98 ft 0 kts 270°
2026-04-22 16:51 29.98377 -95.34349 98 ft 0 kts 270°
2026-04-22 16:53 29.98377 -95.34351 98 ft 0 kts 270°
2026-04-22 16:54 29.98377 -95.34357 98 ft 1 kts 270°
2026-04-22 16:54 29.98376 -95.34397 98 ft 5 kts 264°
2026-04-22 16:54 29.98367 -95.34431 98 ft 7 kts 241°
2026-04-22 16:54 29.98333 -95.34489 98 ft 10 kts 249°
2026-04-22 16:55 29.98326 -95.34546 97 ft 12 kts 269°
2026-04-22 16:55 29.98325 -95.34607 96 ft 15 kts 270°
2026-04-22 16:55 29.98325 -95.34740 95 ft 17 kts 270°
2026-04-22 16:55 29.98325 -95.34880 95 ft 17 kts 270°
2026-04-22 16:56 29.98324 -95.35026 95 ft 17 kts 270°
2026-04-22 16:56 29.98326 -95.35151 95 ft 11 kts 287°
2026-04-22 16:56 29.98366 -95.35192 95 ft 12 kts 331°
2026-04-22 16:56 29.98444 -95.35241 95 ft 13 kts 332°
2026-04-22 16:57 29.98527 -95.35291 95 ft 13 kts 332°
2026-04-22 16:57 29.98613 -95.35345 95 ft 14 kts 331°
2026-04-22 16:57 29.98735 -95.35420 95 ft 15 kts 332°
2026-04-22 16:57 29.98832 -95.35478 95 ft 16 kts 332°
2026-04-22 16:58 29.98884 -95.35511 95 ft 10 kts 321°
2026-04-22 16:58 29.98866 -95.35596 95 ft 9 kts 240°
2026-04-22 16:58 29.98844 -95.35640 95 ft 9 kts 242°
2026-04-22 16:58 29.98800 -95.35738 95 ft 10 kts 242°
2026-04-22 16:59 29.98778 -95.35772 95 ft 6 kts 204°
2026-04-22 16:59 29.98739 -95.35758 95 ft 0 kts 150°
2026-04-22 16:59 29.98614 -95.35680 95 ft 52 kts 152°
2026-04-22 16:59 29.98080 -95.35353 95 ft 118 kts 152°
2026-04-22 17:00 29.97195 -95.34817 147 ft 162 kts 151°
2026-04-22 17:00 29.95026 -95.33925 1253 ft 178 kts 189°
2026-04-22 17:00 29.93934 -95.34626 1806 ft 192 kts 228°
2026-04-22 17:01 29.93469 -95.35513 2206 ft 199 kts 244°
2026-04-22 17:01 29.92564 -95.37406 3049 ft 208 kts 233°
2026-04-22 17:01 29.91994 -95.38310 3376 ft 220 kts 232°
2026-04-22 17:01 29.90962 -95.39803 3575 ft 253 kts 229°
2026-04-22 17:02 29.89778 -95.41378 3940 ft 265 kts 227°
2026-04-22 17:02 29.88561 -95.42994 4449 ft 272 kts 235°
2026-04-22 17:02 29.87589 -95.44869 5065 ft 273 kts 240°
2026-04-22 17:02 29.86649 -95.46754 5695 ft 273 kts 240°
2026-04-22 17:03 29.85386 -95.49277 6500 ft 274 kts 240°
2026-04-22 17:03 29.84463 -95.51181 7068 ft 275 kts 241°
2026-04-22 17:03 29.83526 -95.53110 7646 ft 276 kts 241°
2026-04-22 17:03 29.82939 -95.54412 8007 ft 276 kts 251°
2026-04-22 17:04 29.82804 -95.56597 8487 ft 280 kts 283°
2026-04-22 17:04 29.83602 -95.58619 8990 ft 283 kts 298°
2026-04-22 17:04 29.84574 -95.60604 9504 ft 284 kts 298°
2026-04-22 17:04 29.85550 -95.62588 10005 ft 285 kts 298°
2026-04-22 17:05 29.86532 -95.64578 10454 ft 288 kts 298°
2026-04-22 17:05 29.87862 -95.67271 10956 ft 295 kts 298°
2026-04-22 17:05 29.88879 -95.69330 11298 ft 301 kts 298°
2026-04-22 17:05 29.89930 -95.71458 11653 ft 306 kts 298°
2026-04-22 17:06 29.90625 -95.72866 11888 ft 309 kts 298°
2026-04-22 17:06 29.91690 -95.75027 12238 ft 314 kts 298°
2026-04-22 17:06 29.93140 -95.77966 12782 ft 317 kts 298°
2026-04-22 17:06 29.93871 -95.79450 13079 ft 318 kts 298°
2026-04-22 17:07 29.94954 -95.81648 13540 ft 319 kts 298°
2026-04-22 17:07 29.96044 -95.83862 13990 ft 320 kts 298°
2026-04-22 17:07 29.97148 -95.86106 14378 ft 321 kts 298°
2026-04-22 17:07 29.98244 -95.88336 14783 ft 322 kts 299°
2026-04-22 17:08 29.99712 -95.91322 15341 ft 324 kts 299°
2026-04-22 17:08 30.00458 -95.92842 15604 ft 325 kts 299°
2026-04-22 17:08 30.01948 -95.95876 16092 ft 328 kts 299°
2026-04-22 17:08 30.02696 -95.97402 16339 ft 329 kts 299°
2026-04-22 17:09 30.04192 -96.00454 16835 ft 331 kts 299°
2026-04-22 17:09 30.05324 -96.02764 17192 ft 333 kts 299°
2026-04-22 17:09 30.06086 -96.04321 17427 ft 334 kts 299°
2026-04-22 17:09 30.07246 -96.07610 17890 ft 336 kts 282°
2026-04-22 17:10 30.07672 -96.10265 18257 ft 337 kts 281°
2026-04-22 17:10 30.07952 -96.12045 18493 ft 338 kts 281°
2026-04-22 17:10 30.08503 -96.15585 18958 ft 339 kts 281°
2026-04-22 17:10 30.08782 -96.17384 19189 ft 340 kts 281°
2026-04-22 17:11 30.09195 -96.20058 19512 ft 342 kts 281°
2026-04-22 17:11 30.09750 -96.23652 19960 ft 343 kts 281°
2026-04-22 17:11 30.10171 -96.26382 20287 ft 345 kts 281°
2026-04-22 17:11 30.10588 -96.29090 20614 ft 346 kts 281°
2026-04-22 17:12 30.11008 -96.31827 20933 ft 347 kts 281°
2026-04-22 17:12 30.11288 -96.33651 21164 ft 348 kts 282°
2026-04-22 17:12 30.11713 -96.36420 21483 ft 349 kts 281°
2026-04-22 17:12 30.12135 -96.39180 21792 ft 350 kts 282°
2026-04-22 17:13 30.12694 -96.42839 22190 ft 352 kts 282°
2026-04-22 17:13 30.12977 -96.44692 22382 ft 353 kts 282°
2026-04-22 17:13 30.13403 -96.47486 22676 ft 354 kts 282°
2026-04-22 17:13 30.13971 -96.51225 23061 ft 356 kts 282°
2026-04-22 17:14 30.14395 -96.54016 23339 ft 357 kts 282°
2026-04-22 17:14 30.14824 -96.56847 23592 ft 359 kts 282°
2026-04-22 17:14 30.15112 -96.58742 23772 ft 360 kts 282°
2026-04-22 17:14 30.15688 -96.62553 24143 ft 361 kts 282°
2026-04-22 17:15 30.15827 -96.63472 24226 ft 362 kts 282°
2026-04-22 17:15 30.16404 -96.67301 24580 ft 363 kts 281°
2026-04-22 17:15 30.16838 -96.70184 24835 ft 365 kts 281°
2026-04-22 17:15 30.17416 -96.74026 25180 ft 366 kts 281°
2026-04-22 17:16 30.17851 -96.76930 25426 ft 368 kts 281°
2026-04-22 17:16 30.18140 -96.78857 25602 ft 368 kts 281°
2026-04-22 17:16 30.18578 -96.81786 25830 ft 370 kts 281°
2026-04-22 17:16 30.19158 -96.85664 26156 ft 371 kts 281°
2026-04-22 17:17 30.19450 -96.87623 26314 ft 372 kts 281°
2026-04-22 17:17 30.19890 -96.90574 26551 ft 373 kts 281°
2026-04-22 17:17 30.20330 -96.93536 26769 ft 374 kts 281°
2026-04-22 17:17 30.20915 -96.97475 27082 ft 375 kts 281°
2026-04-22 17:18 30.21207 -96.99451 27227 ft 376 kts 282°
2026-04-22 17:18 30.21645 -97.02413 27426 ft 378 kts 282°
2026-04-22 17:18 30.22234 -97.06397 27716 ft 379 kts 282°
2026-04-22 17:18 30.22685 -97.09424 27924 ft 380 kts 282°
2026-04-22 17:19 30.23431 -97.14423 28278 ft 381 kts 282°
2026-04-22 17:19 30.24334 -97.20481 28688 ft 383 kts 282°
2026-04-22 17:20 30.25383 -97.27552 29145 ft 385 kts 282°
2026-04-22 17:20 30.26284 -97.33647 29506 ft 387 kts 282°
2026-04-22 17:21 30.26739 -97.36732 29671 ft 389 kts 282°
2026-04-22 17:21 30.27491 -97.41841 29987 ft 389 kts 282°
2026-04-22 17:22 30.29000 -97.52139 30082 ft 402 kts 282°
2026-04-22 17:22 30.29789 -97.57544 30082 ft 414 kts 282°
2026-04-22 17:23 30.30428 -97.61940 30081 ft 420 kts 282°
2026-04-22 17:23 30.31874 -97.71917 30082 ft 418 kts 282°
2026-04-22 17:24 30.32963 -97.77351 30087 ft 417 kts 286°
2026-04-22 17:24 30.34352 -97.83830 30088 ft 416 kts 285°
2026-04-22 17:25 30.35723 -97.90313 30091 ft 417 kts 285°
2026-04-22 17:25 30.37323 -97.97902 30089 ft 417 kts 285°
2026-04-22 17:26 30.38464 -98.03329 30089 ft 418 kts 285°
2026-04-22 17:26 30.40059 -98.10935 30090 ft 417 kts 285°
2026-04-22 17:27 30.41186 -98.16328 30090 ft 416 kts 285°
2026-04-22 17:27 30.42774 -98.23939 30085 ft 417 kts 285°
2026-04-22 17:28 30.43898 -98.29341 30085 ft 416 kts 286°
2026-04-22 17:28 30.45509 -98.36916 30084 ft 415 kts 287°
2026-04-22 17:29 30.46716 -98.42318 30084 ft 415 kts 287°
2026-04-22 17:29 30.48392 -98.49855 30077 ft 416 kts 287°
2026-04-22 17:30 30.49824 -98.56310 30072 ft 415 kts 287°
2026-04-22 17:30 30.51257 -98.62788 30066 ft 413 kts 287°
2026-04-22 17:31 30.52436 -98.68131 30072 ft 414 kts 286°
2026-04-22 17:31 30.54097 -98.75678 30067 ft 415 kts 286°
2026-04-22 17:32 30.55517 -98.82144 30073 ft 416 kts 286°
2026-04-22 17:32 30.56943 -98.88655 30070 ft 416 kts 286°
2026-04-22 17:33 30.58353 -98.95112 30065 ft 415 kts 286°
2026-04-22 17:33 30.59762 -99.01578 30071 ft 414 kts 286°
2026-04-22 17:34 30.61163 -99.08028 30069 ft 415 kts 286°
2026-04-22 17:34 30.62565 -99.14494 30072 ft 413 kts 286°
2026-04-22 17:35 30.63966 -99.20972 30070 ft 415 kts 286°
2026-04-22 17:35 30.65366 -99.27468 30071 ft 414 kts 286°
2026-04-22 17:36 30.66767 -99.33981 30069 ft 415 kts 286°
2026-04-22 17:36 30.68153 -99.40443 30070 ft 417 kts 286°
2026-04-22 17:37 30.69548 -99.46962 30069 ft 417 kts 285°
2026-04-22 17:37 30.70940 -99.53487 30070 ft 417 kts 285°
2026-04-22 17:38 30.72101 -99.58939 30070 ft 417 kts 285°
2026-04-22 17:38 30.73719 -99.66563 30081 ft 418 kts 285°
2026-04-22 17:39 30.75098 -99.73074 30087 ft 418 kts 285°
2026-04-22 17:40 30.77166 -99.82877 30086 ft 417 kts 285°
2026-04-22 17:40 30.78546 -99.89438 30086 ft 419 kts 285°
2026-04-22 17:41 30.79922 -99.95994 30083 ft 419 kts 284°
2026-04-22 17:41 30.81293 -100.02552 30085 ft 419 kts 284°
2026-04-22 17:42 30.82667 -100.09137 30081 ft 420 kts 285°
2026-04-22 17:42 30.83804 -100.14600 30082 ft 419 kts 285°
2026-04-22 17:43 30.85399 -100.22289 30082 ft 420 kts 285°
2026-04-22 17:43 30.86754 -100.28833 30083 ft 420 kts 284°
2026-04-22 17:44 30.88119 -100.35447 30081 ft 421 kts 284°
2026-04-22 17:44 30.89476 -100.42043 30081 ft 420 kts 284°
2026-04-22 17:45 30.90830 -100.48640 30080 ft 420 kts 284°
2026-04-22 17:45 30.92178 -100.55229 30080 ft 421 kts 284°
2026-04-22 17:46 30.93534 -100.61871 30082 ft 422 kts 284°
2026-04-22 17:46 30.94886 -100.68516 30089 ft 424 kts 284°
2026-04-22 17:47 30.96014 -100.74071 30088 ft 424 kts 284°
2026-04-22 17:47 30.97585 -100.81833 30090 ft 424 kts 284°
2026-04-22 17:48 30.98718 -100.87444 30089 ft 425 kts 284°
2026-04-22 17:48 31.00282 -100.95216 30088 ft 423 kts 284°
2026-04-22 17:49 31.01627 -101.01916 30087 ft 423 kts 284°
2026-04-22 17:49 31.02960 -101.08577 30085 ft 423 kts 284°
2026-04-22 17:50 31.04284 -101.15218 30087 ft 424 kts 284°
2026-04-22 17:50 31.05620 -101.21930 30079 ft 424 kts 284°
2026-04-22 17:51 31.06939 -101.28577 30079 ft 425 kts 284°
2026-04-22 17:51 31.08264 -101.35274 30075 ft 425 kts 284°
2026-04-22 17:52 31.09372 -101.40896 30071 ft 426 kts 284°
2026-04-22 17:52 31.10694 -101.47609 30073 ft 426 kts 283°
2026-04-22 17:53 31.12225 -101.55419 30070 ft 426 kts 284°
2026-04-22 17:53 31.13314 -101.60986 30068 ft 425 kts 284°
2026-04-22 17:54 31.14847 -101.68844 30075 ft 424 kts 283°
2026-04-22 17:54 31.16140 -101.75497 30068 ft 425 kts 283°
2026-04-22 17:55 31.17228 -101.81110 30067 ft 424 kts 283°
2026-04-22 17:55 31.18736 -101.88912 30062 ft 424 kts 283°
2026-04-22 17:56 31.20031 -101.95631 30057 ft 423 kts 283°
2026-04-22 17:56 31.21311 -102.02296 30057 ft 424 kts 283°
2026-04-22 17:57 31.22600 -102.09027 30059 ft 425 kts 283°
2026-04-22 17:57 31.23882 -102.15740 30063 ft 425 kts 283°
2026-04-22 17:58 31.25163 -102.22465 30063 ft 426 kts 283°
2026-04-22 17:58 31.26445 -102.29223 30063 ft 424 kts 283°
2026-04-22 17:59 31.27713 -102.35925 30060 ft 423 kts 283°
2026-04-22 17:59 31.28974 -102.42606 30056 ft 424 kts 283°
2026-04-22 18:00 31.30030 -102.48221 30051 ft 424 kts 283°
2026-04-22 18:00 31.31494 -102.56025 30050 ft 423 kts 283°
2026-04-22 18:01 31.32748 -102.62729 30051 ft 425 kts 283°
2026-04-22 18:01 31.34008 -102.69490 30062 ft 425 kts 282°
2026-04-22 18:02 31.35255 -102.76202 30062 ft 423 kts 282°
2026-04-22 18:02 31.36498 -102.82909 30066 ft 424 kts 282°
2026-04-22 18:03 31.37735 -102.89606 30074 ft 423 kts 282°
2026-04-22 18:03 31.38968 -102.96303 30075 ft 422 kts 282°
2026-04-22 18:04 31.40197 -103.02999 30076 ft 423 kts 282°
2026-04-22 18:04 31.41432 -103.09752 30076 ft 422 kts 282°
2026-04-22 18:05 31.42653 -103.16442 30078 ft 421 kts 282°
2026-04-22 18:05 31.43866 -103.23118 30079 ft 422 kts 282°
2026-04-22 18:06 31.45082 -103.29823 30081 ft 421 kts 282°
2026-04-22 18:06 31.46293 -103.36527 30067 ft 421 kts 282°
2026-04-22 18:07 31.47302 -103.42125 30056 ft 421 kts 282°
2026-04-22 18:07 31.48707 -103.49947 30052 ft 422 kts 282°
2026-04-22 18:08 31.49899 -103.56605 30058 ft 420 kts 282°
2026-04-22 18:08 31.51102 -103.63350 30070 ft 422 kts 282°
2026-04-22 18:09 31.52300 -103.70085 30085 ft 422 kts 282°
2026-04-22 18:09 31.53487 -103.76780 30090 ft 423 kts 282°
2026-04-22 18:10 31.54674 -103.83495 30096 ft 421 kts 282°
2026-04-22 18:10 31.55862 -103.90238 30100 ft 421 kts 282°
2026-04-22 18:11 31.57037 -103.96928 30099 ft 420 kts 282°
2026-04-22 18:11 31.58210 -104.03630 30108 ft 421 kts 282°
2026-04-22 18:12 31.59378 -104.10323 30110 ft 420 kts 282°
2026-04-22 18:12 31.60350 -104.15915 30130 ft 420 kts 282°
2026-04-22 18:13 31.61702 -104.23714 30125 ft 420 kts 282°
2026-04-22 18:13 31.62856 -104.30393 30145 ft 419 kts 282°
2026-04-22 18:14 31.64005 -104.37064 30154 ft 420 kts 282°
2026-04-22 18:14 31.65155 -104.43762 30166 ft 419 kts 282°
2026-04-22 18:15 31.66302 -104.50468 30166 ft 420 kts 282°
2026-04-22 18:15 31.67439 -104.57137 30177 ft 419 kts 282°
2026-04-22 18:16 31.68575 -104.63821 30180 ft 418 kts 282°
2026-04-22 18:16 31.69710 -104.70523 30195 ft 418 kts 281°
2026-04-22 18:17 31.70837 -104.77196 30212 ft 419 kts 281°
2026-04-22 18:17 31.71957 -104.83854 30206 ft 417 kts 281°
2026-04-22 18:18 31.73068 -104.90475 30199 ft 416 kts 281°
2026-04-22 18:18 31.74180 -104.97131 30183 ft 416 kts 281°
2026-04-22 18:19 31.75287 -105.03774 30167 ft 414 kts 281°
2026-04-22 18:19 31.76382 -105.10365 30169 ft 416 kts 281°
2026-04-22 18:20 31.77489 -105.17055 30176 ft 416 kts 281°
2026-04-22 18:20 31.78586 -105.23714 30178 ft 418 kts 281°
2026-04-22 18:21 31.79683 -105.30384 30190 ft 417 kts 281°
2026-04-22 18:21 31.80774 -105.37047 30201 ft 419 kts 281°
2026-04-22 18:22 31.81872 -105.43773 30201 ft 419 kts 281°
2026-04-22 18:22 31.82961 -105.50465 30209 ft 417 kts 281°
2026-04-22 18:23 31.84046 -105.57159 30208 ft 417 kts 281°
2026-04-22 18:23 31.84946 -105.62731 30215 ft 417 kts 282°
2026-04-22 18:24 31.86735 -105.73849 30228 ft 418 kts 281°
2026-04-22 18:25 31.88350 -105.83943 30214 ft 419 kts 281°
2026-04-22 18:25 31.89420 -105.90655 30222 ft 421 kts 281°
2026-04-22 18:26 31.91026 -106.00785 30217 ft 420 kts 281°
2026-04-22 18:26 31.92093 -106.07540 30206 ft 420 kts 281°
2026-04-22 18:27 31.93151 -106.14263 30202 ft 421 kts 281°
2026-04-22 18:27 31.94204 -106.20986 30175 ft 419 kts 281°
2026-04-22 18:28 31.95167 -106.27743 30167 ft 420 kts 276°
2026-04-22 18:28 31.95710 -106.34550 30171 ft 420 kts 276°
2026-04-22 18:29 31.96211 -106.41379 30177 ft 420 kts 276°
2026-04-22 18:29 31.96705 -106.48237 30186 ft 420 kts 276°
2026-04-22 18:30 31.97434 -106.58446 30183 ft 419 kts 276°
2026-04-22 18:31 31.97918 -106.65292 30181 ft 420 kts 275°
2026-04-22 18:31 31.98399 -106.72138 30185 ft 420 kts 275°
2026-04-22 18:32 31.98794 -106.77814 30186 ft 420 kts 275°
2026-04-22 18:32 31.99344 -106.85774 30183 ft 419 kts 275°
2026-04-22 18:33 31.99813 -106.92605 30195 ft 420 kts 275°
2026-04-22 18:33 32.00276 -106.99419 30193 ft 418 kts 275°
2026-04-22 18:34 32.00735 -107.06234 30189 ft 418 kts 275°
2026-04-22 18:34 32.01194 -107.13080 30196 ft 418 kts 275°
2026-04-22 18:35 32.01644 -107.19875 30197 ft 417 kts 275°
2026-04-22 18:35 32.02092 -107.26665 30201 ft 417 kts 275°
2026-04-22 18:36 32.02533 -107.33417 30194 ft 417 kts 275°
2026-04-22 18:36 32.02900 -107.39082 30193 ft 417 kts 275°
2026-04-22 18:37 32.03408 -107.46986 30196 ft 416 kts 275°
2026-04-22 18:37 32.03767 -107.52618 30198 ft 415 kts 275°
2026-04-22 18:38 32.04266 -107.60521 30191 ft 415 kts 275°
2026-04-22 18:38 32.04691 -107.67312 30197 ft 413 kts 275°
2026-04-22 18:39 32.05320 -107.77464 30197 ft 415 kts 274°
2026-04-22 18:39 32.05734 -107.84225 30210 ft 412 kts 275°
2026-04-22 18:40 32.06145 -107.90992 30211 ft 411 kts 274°
2026-04-22 18:40 32.06550 -107.97723 30213 ft 413 kts 275°
2026-04-22 18:41 32.06955 -108.04508 30211 ft 411 kts 274°
2026-04-22 18:41 32.07353 -108.11240 30217 ft 412 kts 274°
2026-04-22 18:42 32.07750 -108.18023 30220 ft 413 kts 274°
2026-04-22 18:42 32.08141 -108.24754 30218 ft 412 kts 274°
2026-04-22 18:43 32.08531 -108.31534 30217 ft 413 kts 274°
2026-04-22 18:43 32.08914 -108.38250 30209 ft 413 kts 274°
2026-04-22 18:44 32.09296 -108.45014 30212 ft 414 kts 274°
2026-04-22 18:44 32.09674 -108.51784 30205 ft 413 kts 274°
2026-04-22 18:45 32.10048 -108.58529 30202 ft 414 kts 274°
2026-04-22 18:45 32.10417 -108.65275 30199 ft 414 kts 273°
2026-04-22 18:46 32.10784 -108.72025 30209 ft 413 kts 273°
2026-04-22 18:46 32.11148 -108.78786 30207 ft 414 kts 274°
2026-04-22 18:47 32.11509 -108.85579 30209 ft 413 kts 273°
2026-04-22 18:47 32.11869 -108.92375 30209 ft 410 kts 273°
2026-04-22 18:48 32.12212 -108.98907 30204 ft 400 kts 273°
2026-04-22 18:48 32.12585 -109.05500 30204 ft 402 kts 274°
2026-04-22 18:49 32.12770 -109.08762 30106 ft 390 kts 274°
2026-04-22 18:49 32.12949 -109.11880 29423 ft 384 kts 273°
2026-04-22 18:49 32.13129 -109.15026 28244 ft 389 kts 274°
2026-04-22 18:49 32.13353 -109.18201 26929 ft 396 kts 274°
2026-04-22 18:50 32.13622 -109.21410 26016 ft 391 kts 275°
2026-04-22 18:50 32.13921 -109.24484 25670 ft 374 kts 276°
2026-04-22 18:50 32.14233 -109.27478 25378 ft 358 kts 276°
2026-04-22 18:50 32.14618 -109.30351 24673 ft 355 kts 283°
2026-04-22 18:51 32.15434 -109.33032 24070 ft 350 kts 293°
2026-04-22 18:51 32.16324 -109.35625 23693 ft 333 kts 278°
2026-04-22 18:51 32.16329 -109.38231 23712 ft 308 kts 267°
2026-04-22 18:51 32.16395 -109.40689 23654 ft 299 kts 274°
2026-04-22 18:52 32.16662 -109.43190 23686 ft 315 kts 277°
2026-04-22 18:52 32.17041 -109.45811 23730 ft 331 kts 278°
2026-04-22 18:52 32.17472 -109.48495 23765 ft 345 kts 279°
2026-04-22 18:52 32.17948 -109.51338 23790 ft 360 kts 279°
2026-04-22 18:53 32.18450 -109.54285 23844 ft 372 kts 279°
2026-04-22 18:53 32.18966 -109.57304 24042 ft 380 kts 280°
2026-04-22 18:53 32.19490 -109.60363 24397 ft 383 kts 280°
2026-04-22 18:53 32.20011 -109.63416 24833 ft 384 kts 280°
2026-04-22 18:54 32.20538 -109.66495 25331 ft 383 kts 279°
2026-04-22 18:54 32.21050 -109.69572 25388 ft 385 kts 276°
2026-04-22 18:54 32.21014 -109.72771 25579 ft 389 kts 264°
2026-04-22 18:54 32.20803 -109.75956 25826 ft 392 kts 265°
2026-04-22 18:55 32.20629 -109.79082 25688 ft 385 kts 266°
2026-04-22 18:55 32.20485 -109.82194 25317 ft 370 kts 266°
2026-04-22 18:55 32.20353 -109.85115 25309 ft 347 kts 265°
2026-04-22 18:55 32.20012 -109.87854 25062 ft 331 kts 259°
2026-04-22 18:56 32.19660 -109.90508 24520 ft 326 kts 262°
2026-04-22 18:56 32.19385 -109.93152 23767 ft 327 kts 263°
2026-04-22 18:56 32.19008 -109.95768 23002 ft 327 kts 252°
2026-04-22 18:56 32.18586 -109.98388 22248 ft 327 kts 264°
2026-04-22 18:57 32.17972 -110.00915 21559 ft 325 kts 244°
2026-04-22 18:57 32.16939 -110.03267 21001 ft 320 kts 243°
2026-04-22 18:57 32.15979 -110.05568 20445 ft 316 kts 250°
2026-04-22 18:57 32.15469 -110.08068 19848 ft 313 kts 262°
2026-04-22 18:58 32.15143 -110.10577 19276 ft 309 kts 261°
2026-04-22 18:58 32.14803 -110.13044 18682 ft 307 kts 261°
2026-04-22 18:58 32.14463 -110.15510 18094 ft 304 kts 261°
2026-04-22 18:58 32.14482 -110.17957 17511 ft 304 kts 284°
2026-04-22 18:59 32.15568 -110.20117 16902 ft 312 kts 314°
2026-04-22 18:59 32.17466 -110.21365 16304 ft 323 kts 342°
2026-04-22 18:59 32.19719 -110.21400 15733 ft 331 kts
2026-04-22 18:59 32.21832 -110.20338 15181 ft 336 kts 36°
2026-04-22 19:00 32.23296 -110.18213 14638 ft 337 kts 64°
2026-04-22 19:00 32.24174 -110.15694 14226 ft 331 kts 68°
2026-04-22 19:00 32.25000 -110.13187 14178 ft 328 kts 68°
2026-04-22 19:00 32.25783 -110.10646 14161 ft 332 kts 78°
2026-04-22 19:01 32.25742 -110.07957 14192 ft 330 kts 109°
2026-04-22 19:01 32.24619 -110.05630 14198 ft 324 kts 139°
2026-04-22 19:01 32.22769 -110.04299 14209 ft 312 kts 169°
2026-04-22 19:01 32.20639 -110.04232 14209 ft 301 kts 199°
2026-04-22 19:02 32.18849 -110.05471 14345 ft 306 kts 231°
2026-04-22 19:02 32.17804 -110.07610 15007 ft 305 kts 246°
2026-04-22 19:02 32.16949 -110.09864 15861 ft 295 kts 247°
2026-04-22 19:02 32.16138 -110.12000 16009 ft 282 kts 247°
2026-04-22 19:03 32.15343 -110.14095 15565 ft 279 kts 247°
2026-04-22 19:03 32.14547 -110.16190 14847 ft 285 kts 246°
2026-04-22 19:03 32.13731 -110.18338 14121 ft 291 kts 246°
2026-04-22 19:03 32.12912 -110.20490 13506 ft 291 kts 246°
2026-04-22 19:04 32.12109 -110.22601 13439 ft 271 kts 246°
2026-04-22 19:04 32.11321 -110.24671 13435 ft 280 kts 246°
2026-04-22 19:04 32.10537 -110.26730 13129 ft 273 kts 246°
2026-04-22 19:04 32.09766 -110.28751 12521 ft 277 kts 246°
2026-04-22 19:05 32.08974 -110.30829 11855 ft 282 kts 246°
2026-04-22 19:05 32.08172 -110.32932 11272 ft 282 kts 246°
2026-04-22 19:05 32.07209 -110.34937 10734 ft 281 kts 237°
2026-04-22 19:05 32.06277 -110.36934 10215 ft 279 kts 246°
2026-04-22 19:06 32.05569 -110.39038 9707 ft 277 kts 250°
2026-04-22 19:06 32.04979 -110.41166 9321 ft 271 kts 252°
2026-04-22 19:06 32.04449 -110.43284 8978 ft 264 kts 253°
2026-04-22 19:07 32.03489 -110.47379 8134 ft 259 kts 254°
2026-04-22 19:07 32.03025 -110.49406 7672 ft 259 kts 254°
2026-04-22 19:07 32.02559 -110.51453 7200 ft 258 kts 255°
2026-04-22 19:07 32.02101 -110.53471 6741 ft 257 kts 255°
2026-04-22 19:08 32.01638 -110.55512 6408 ft 263 kts 255°
2026-04-22 19:08 32.01167 -110.57594 6349 ft 259 kts 255°
2026-04-22 19:08 32.00709 -110.59610 6329 ft 257 kts 255°
2026-04-22 19:08 32.00245 -110.61653 6325 ft 256 kts 255°
2026-04-22 19:09 31.99785 -110.63679 6321 ft 256 kts 255°
2026-04-22 19:09 31.99330 -110.65680 6318 ft 257 kts 254°
2026-04-22 19:09 31.99021 -110.67039 6315 ft 253 kts 254°
2026-04-22 19:09 31.98448 -110.69561 6337 ft 225 kts 253°
2026-04-22 19:10 31.98052 -110.71299 6371 ft 217 kts 253°
2026-04-22 19:10 31.97658 -110.73025 6322 ft 218 kts 253°
2026-04-22 19:10 31.97263 -110.74756 6313 ft 220 kts 253°
2026-04-22 19:10 31.97191 -110.76524 6280 ft 225 kts 285°
2026-04-22 19:11 31.98088 -110.78056 6321 ft 232 kts 310°
2026-04-22 19:11 31.99207 -110.79379 6242 ft 221 kts 311°
2026-04-22 19:11 32.00283 -110.80643 5907 ft 217 kts 311°
2026-04-22 19:11 32.01334 -110.81877 5491 ft 211 kts 312°
2026-04-22 19:12 32.02367 -110.83089 4872 ft 208 kts 313°
2026-04-22 19:12 32.03344 -110.84232 4534 ft 189 kts 313°
2026-04-22 19:12 32.04236 -110.85277 4253 ft 172 kts 313°
2026-04-22 19:12 32.05040 -110.86218 4034 ft 156 kts 313°
2026-04-22 19:13 32.05792 -110.87103 3734 ft 149 kts 313°
2026-04-22 19:13 32.06495 -110.87954 3508 ft 137 kts 312°
2026-04-22 19:13 32.07156 -110.88766 3383 ft 142 kts 312°
2026-04-22 19:13 32.07860 -110.89618 3367 ft 149 kts 314°
2026-04-22 19:14 32.08602 -110.90447 3175 ft 148 kts 316°
2026-04-22 19:14 32.09348 -110.91290 2928 ft 146 kts 314°
2026-04-22 19:14 32.10059 -110.92120 2707 ft 143 kts 314°
2026-04-22 19:14 32.10741 -110.92920 2634 ft 123 kts 315°
2026-04-22 19:15 32.11089 -110.93328 2624 ft 90 kts 315°
2026-04-22 19:15 32.11476 -110.93782 2612 ft 39 kts 315°
2026-04-22 19:15 32.11669 -110.94009 2605 ft 33 kts 315°
2026-04-22 19:15 32.11784 -110.94098 2603 ft 15 kts
2026-04-22 19:16 32.11871 -110.94098 2602 ft 6 kts
2026-04-22 19:16 32.11886 -110.94098 2602 ft 0 kts
2026-04-22 19:17 32.11901 -110.94098 2601 ft 4 kts
2026-04-22 19:18 32.11942 -110.94098 2601 ft 7 kts 356°
2026-04-22 19:18 32.11980 -110.94127 2599 ft 6 kts 331°
2026-04-22 19:18 32.12014 -110.94109 2599 ft 4 kts 45°
2026-04-22 19:18 32.12037 -110.94085 2599 ft 4 kts 23°
2026-04-22 19:19 32.12077 -110.94091 2598 ft 7 kts 352°
2026-04-22 19:19 32.12114 -110.94087 2597 ft 1 kts 58°
2026-04-22 19:19 32.12113 -110.94076 2597 ft 1 kts 99°
2026-04-22 19:19 32.12111 -110.94055 2597 ft 3 kts 97°
2026-04-22 19:20 32.12108 -110.94031 2597 ft 1 kts 95°
2026-04-22 19:20 32.12108 -110.94024 2597 ft 0 kts 95°